TimeEDT,TemperatureF,Dew PointF,Humidity,Sea Level PressureIn,VisibilityMPH,Wind Direction,Wind SpeedMPH,Gust SpeedMPH,PrecipitationIn,Events,Conditions,WindDirDegrees,DateUTC
12:53 AM,57.0,54.0,89,29.86,10.0,East,3.5,-,N/A,,Overcast,80,2013-06-13 04:53:00
1:53 AM,57.9,54.0,87,29.83,10.0,Calm,Calm,-,N/A,,Mostly Cloudy,0,2013-06-13 05:53:00
2:53 AM,59.0,50.0,72,29.82,10.0,ESE,3.5,-,N/A,,Scattered Clouds,110,2013-06-13 06:53:00
3:53 AM,61.0,51.1,70,29.81,10.0,SSE,6.9,-,N/A,,Overcast,160,2013-06-13 07:53:00
4:53 AM,59.0,53.1,81,29.80,10.0,SSE,4.6,-,0.00,Rain,Light Rain,150,2013-06-13 08:53:00
5:53 AM,57.9,54.0,87,29.75,10.0,ESE,5.8,-,0.01,Rain,Light Rain,120,2013-06-13 09:53:00
6:53 AM,57.0,54.0,89,29.73,10.0,ESE,8.1,-,0.00,,Mostly Cloudy,120,2013-06-13 10:53:00
7:53 AM,57.0,54.0,89,29.74,10.0,ESE,9.2,-,0.00,,Overcast,120,2013-06-13 11:53:00
8:03 AM,57.2,53.6,88,29.75,10.0,SE,8.1,-,N/A,,Overcast,130,2013-06-13 12:03:00
8:38 AM,55.4,53.6,94,29.75,4.0,SE,9.2,-,0.00,Rain,Light Rain,130,2013-06-13 12:38:00
8:41 AM,55.4,53.6,94,29.74,1.8,SE,5.8,-,0.00,Rain,Rain,130,2013-06-13 12:41:00
8:53 AM,55.9,54.0,93,29.73,3.0,SE,10.4,-,0.00,Rain,Light Rain,130,2013-06-13 12:53:00
9:00 AM,57.2,53.6,88,29.73,4.0,SE,13.8,-,0.00,Rain,Light Rain,140,2013-06-13 13:00:00
9:17 AM,55.4,53.6,94,29.72,2.5,SE,13.8,21.9,N/A,Rain,Light Rain,140,2013-06-13 13:17:00
9:27 AM,55.4,53.6,94,29.71,4.0,SE,10.4,21.9,N/A,Rain,Light Rain,130,2013-06-13 13:27:00
9:48 AM,55.4,55.4,100,29.68,4.0,ESE,13.8,-,N/A,Rain,Light Rain,120,2013-06-13 13:48:00
9:53 AM,55.9,54.0,93,29.67,5.0,ESE,12.7,-,N/A,Rain,Light Rain,120,2013-06-13 13:53:00
10:06 AM,55.4,53.6,94,29.67,5.0,ESE,13.8,-,N/A,Rain,Light Rain,120,2013-06-13 14:06:00
10:53 AM,55.9,54.0,93,29.62,6.0,ESE,18.4,24.2,N/A,,Overcast,120,2013-06-13 14:53:00
11:14 AM,55.4,53.6,94,29.63,1.5,SE,17.3,21.9,N/A,,Overcast,130,2013-06-13 15:14:00
11:20 AM,55.4,55.4,100,29.63,0.2,ESE,15.0,23.0,N/A,Fog,Fog,120,2013-06-13 15:20:00
11:53 AM,55.9,55.0,97,29.62,0.2,SE,13.8,21.9,N/A,Fog,Fog,130,2013-06-13 15:53:00
12:53 PM,57.0,55.9,96,29.57,0.2,ESE,10.4,-,0.01,Fog,Fog,110,2013-06-13 16:53:00
1:53 PM,57.0,55.9,96,29.57,0.2,Variable,6.9,-,0.01,Fog,Fog,0,2013-06-13 17:53:00
2:53 PM,57.9,57.0,97,29.55,0.2,ESE,9.2,-,0.01,Fog,Fog,110,2013-06-13 18:53:00
3:53 PM,57.9,57.0,97,29.52,0.2,ESE,13.8,19.6,0.01,Fog-Rain,Light Rain,110,2013-06-13 19:53:00
4:48 PM,57.2,55.4,94,29.52,1.0,East,12.7,-,0.01,Rain,Heavy Rain,100,2013-06-13 20:48:00
4:53 PM,57.0,55.9,96,29.51,1.5,East,10.4,-,0.01,Rain,Light Rain,90,2013-06-13 20:53:00
5:03 PM,57.2,55.4,94,29.53,2.0,East,6.9,-,0.01,Rain,Light Rain,90,2013-06-13 21:03:00
5:11 PM,57.2,55.4,94,29.53,1.5,East,10.4,-,0.01,Rain,Rain,100,2013-06-13 21:11:00
5:33 PM,57.2,55.4,94,29.53,3.0,East,9.2,-,0.01,Rain,Light Rain,90,2013-06-13 21:33:00
5:53 PM,57.0,55.0,93,29.51,10.0,East,8.1,-,0.01,,Overcast,90,2013-06-13 21:53:00
6:08 PM,55.4,55.4,100,29.51,10.0,East,12.7,19.6,0.01,,Overcast,80,2013-06-13 22:08:00
6:33 PM,55.4,55.4,100,29.51,10.0,ENE,12.7,-,0.01,,Overcast,70,2013-06-13 22:33:00
6:53 PM,55.9,54.0,93,29.51,10.0,ENE,15.0,-,0.01,,Overcast,70,2013-06-13 22:53:00
7:53 PM,55.0,53.1,93,29.53,2.5,East,11.5,-,0.01,Rain,Light Rain,80,2013-06-13 23:53:00
8:03 PM,53.6,53.6,100,29.53,1.2,East,12.7,23.0,0.01,Rain,Rain,80,2013-06-14 00:03:00
8:09 PM,53.6,53.6,100,29.54,2.0,East,13.8,18.4,0.01,Rain,Light Rain,80,2013-06-14 00:09:00
8:20 PM,53.6,53.6,100,29.54,1.8,ENE,11.5,-,0.01,Rain,Light Rain,70,2013-06-14 00:20:00
8:28 PM,53.6,51.8,94,29.53,2.5,ENE,16.1,20.7,0.01,Rain,Rain,60,2013-06-14 00:28:00
8:39 PM,53.6,51.8,94,29.53,3.0,ENE,16.1,20.7,0.01,Rain,Light Rain,60,2013-06-14 00:39:00
8:53 PM,54.0,52.0,93,29.54,4.0,ENE,13.8,-,0.02,Rain,Light Rain,60,2013-06-14 00:53:00
9:43 PM,53.6,51.8,94,29.57,3.0,NE,17.3,20.7,N/A,Rain,Rain,50,2013-06-14 01:43:00
9:50 PM,53.6,51.8,94,29.57,4.0,NE,13.8,23.0,N/A,Rain,Rain,50,2013-06-14 01:50:00
9:53 PM,53.1,51.1,93,29.57,4.0,ENE,12.7,23.0,N/A,Rain,Rain,60,2013-06-14 01:53:00
10:00 PM,53.6,51.8,94,29.58,5.0,ENE,13.8,23.0,0.00,Rain,Rain,60,2013-06-14 02:00:00
10:19 PM,53.6,51.8,94,29.58,6.0,NE,13.8,-,N/A,Rain,Rain,50,2013-06-14 02:19:00
10:53 PM,53.1,50.0,89,29.59,5.0,NE,10.4,-,N/A,Rain,Rain,40,2013-06-14 02:53:00
11:53 PM,52.0,48.9,89,29.61,9.0,NE,12.7,25.3,0.03,Rain,Light Rain,40,2013-06-14 03:53:00